sat.trackr.live / text

‹ back to catalog

STARLINK-32331

NORAD 61623 · 2024-191C

PAYLOAD ACTIVE UNKNOWN

§ Identity

Operator
Country
US
Launch date
2024-10-23
Launch site
AFETR
Launch vehicle
Mass (kg)
RCS (m²)

Purposes: comms

External: N2YO · Heavens-Above · Gunter

§ Orbital elements

Epoch: 2026-09-20T23:36:42.225120Z

Period
94.27 min
Inclination
43.0010°
Eccentricity
0.0001102
Mean motion
15.27590275 rev/d
Perigee alt
482.3 km
Apogee alt
483.8 km
Semi-major
6,861.2 km
B*
4.4451e-4
RAAN
135.0921°
Arg perigee
301.1935°
Mean anomaly
58.8808°
Rev number
10,736

§ Raw data

STARLINK-323311 61623U 24191C   26263.98382205  .00011993  00000+0  44451-3 0  99942 61623  43.0010 135.0921 0001102 301.1935  58.8808 15.27590275107362

JSON: /api/v1/satellites/61623 · /tle

For live sub-satellite position, see the globe view (requires WebGL).

§ Visibility from observer

Set your observer location to see the next 7 days of passes ≥ 10°. The values pass through the URL so the page stays shareable.

No JS? Fill the form by hand. The geolocation button needs JavaScript.